Showing default

NOAA 5, 9057

Orbit data source: Space-Track

NOAA 5, 9057 is a payload satellite owned by NOAA (US) in SSO that was launched on Thu, 29 Jul 1976 UTC via a DELTA 2310 launch vehicle from the Air Force Western Test Range (AFWTR). Payload-class satellites include a variety of spacecraft equipped with specific instruments for various scientific and technological missions. These include communications satellites like Starlink; space stations such as the ISS; scientific satellites like the Hubble; Earth observation satellites from companies like Planet Labs, Umbra, and HawkEye 360; GPS; miniature CubeSats for education and research; and military/defense satellites.

Loading next visibility...
Identifier
9057, 1976-077A
Orbit
SSO
Country
Flag of USUS
Related business
Manufacturer
RCA/East Windsor
Mission
Non-operational spacecraft
Bus & Motor
TIROS M, Unknown motor
Mass
340 kg wet, 340 kg dry
Launch date (UTC)
1976-07-29 (50 years ago)
Launch vehicle
DELTA 2310
Launch site
Air Force Western Test Range (AFWTR)
Object type
Payload
Rocket body
Debris
Shape & HBR
Unknown
Radar Cross Section
Large (>1 m²)

Expand to show TLE details & history
Last TLE update: 11 hours ago

TLE from 11 hours ago
0 NOAA 5
1 09057U 76077A   26126.40584138 -.00000030  00000-0  12153-3 0  9997
2 09057 102.3009 112.2355 0010256  57.6053 101.2528 12.37830256249301
Epoch: 2026-05-06T09:44Z
TLE epoch observation values (Epoch: 2026-05-06T09:44:24.695Z)
Latitude
20.52986°
Longitude
-73.47335°
Altitude
1,519.6 km
Speed
7.106 km/s
True Right ascension
19h 47m 35s
True Declination
20° 25' 41"
Sunlit
Object was in daylight at epoch
Visualization orbit readout
Latitude
Unknown
Longitude
Unknown
Altitude
Unknown
Speed
Unknown
Apparent Right ascension
Unknown
Apparent Declination
Unknown
Sunlit
N/A
Visualization observer readout
Local Sidereal Time
04:51:13
Azimuth
Unknown
Elevation
Unknown
Doppler factor
Unknown
Orbital elements
Apogee altitude
1,521.504 km
Perigee altitude
1,505.316 km
Semi-major axis
7,891.547 km
Eccentricity
0.00103
Inclination
102.3009°
RAAN
112.2355°
Arg. of periapsis
57.6053°
True anomaly
101.36804°
Mean anomaly
101.2528°
Eccentric anomaly
101.31042°
Mean motion
3.09599 °/min
Orbital period
116.28 mins
BSTAR
0.00012153
Loading maneuver chart data...
Computing Atmospheric mass density...
Loading historical data...
Loading historical data...
Loading historical data...
Loading historical data...
Loading historical data...
Loading historical data...
Loading historical data...

Documentation

Showing up to 5 results
|